Location: Piolenc
(44.1794°N, 4.7641°E)
Time: 01:49:59
(UTC+00:00)

CZ-4B R/B - Pass Details

Date: 27 January 2021
Orbit: 496 x 646 km, 97.8° (Epoch: 27 February)

Event Time Altitude Azimuth Distance (km) Brightness Sun altitude
Rises 05:06:31 0° 6° (N) 2,971 7.6 -21.0°
Reaches altitude 10° 05:08:49 10° 1° (N) 2,051 6.7 -20.6°
Enters shadow 05:12:52 45° 299° (WNW) 869 4.4 -19.9°
